QPF
0.00 0.00 0.00 0.01 0.01 0.03 0.04 0.04 0.04 0.03 0.03 0.03 0.02 0.02 0.02 0.02 0.02 0.02 0.04 0.08 0.08 0.09 0.10 0.09 0.08 0.06 0.06 0.06 0.06 0.05 0.06 0.06 0.05 0.05 0.06 0.09 0.08 0.07 0.07 0.06 0.07 0.09 0.09 0.09 0.07 0.06 0.07 0.07 0.08
0.00 0.00 0.00 0.00 0.02 0.03 0.04 0.05 0.04 0.04 0.02 0.01 0.01 0.01 0.01 0.01 0.01 0.02 0.05 0.08 0.09 0.08 0.06 0.05 0.06 0.06 0.06 0.07 0.05 0.05 0.06 0.05 0.04 0.04 0.05 0.11 0.10 0.08 0.08 0.07 0.08 0.10 0.09 0.10 0.09 0.08 0.08 0.09 0.09
0.01 0.00 0.00 0.00 0.02 0.02 0.05 0.08 0.05 0.02 0.01 0.01 0.01 0.01 0.01 0.01 0.01 0.02 0.03 0.05 0.06 0.06 0.06 0.07 0.06 0.05 0.05 0.06 0.05 0.05 0.05 0.05 0.05 0.05 0.05 0.07 0.11 0.09 0.09 0.08 0.10 0.10 0.09 0.09 0.10 0.10 0.09 0.08 0.08
0.01 0.00 0.00 0.01 0.02 0.02 0.03 0.04 0.03 0.03 0.02 0.01 0.01 0.02 0.01 0.03 0.03 0.03 0.03 0.04 0.05 0.06 0.05 0.08 0.07 0.04 0.06 0.07 0.05 0.04 0.04 0.04 0.04 0.04 0.04 0.06 0.10 0.09 0.09 0.09 0.12 0.10 0.08 0.08 0.09 0.09 0.07 0.06 0.05
0.00 0.00 0.00 0.01 0.03 0.04 0.03 0.02 0.02 0.02 0.03 0.02 0.02 0.02 0.02 0.04 0.04 0.05 0.04 0.05 0.05 0.04 0.05 0.06 0.07 0.05 0.05 0.06 0.05 0.05 0.04 0.02 0.02 0.03 0.04 0.06 0.10 0.10 0.09 0.10 0.12 0.10 0.08 0.08 0.07 0.06 0.05 0.04 0.04
0.00 0.00 0.01 0.02 0.02 0.02 0.02 0.01 0.01 0.01 0.02 0.01 0.02 0.02 0.03 0.04 0.04 0.06 0.06 0.04 0.04 0.04 0.06 0.07 0.07 0.06 0.05 0.05 0.03 0.03 0.04 0.03 0.03 0.04 0.05 0.07 0.08 0.09 0.10 0.13 0.13 0.11 0.08 0.07 0.06 0.05 0.04 0.04 0.04
0.00 0.00 0.01 0.01 0.02 0.02 0.01 0.01 0.00 0.01 0.01 0.01 0.01 0.02 0.04 0.04 0.04 0.05 0.07 0.04 0.04 0.04 0.04 0.06 0.06 0.04 0.05 0.04 0.02 0.03 0.05 0.05 0.04 0.04 0.05 0.07 0.08 0.09 0.10 0.16 0.16 0.10 0.09 0.07 0.05 0.05 0.05 0.04 0.05
0.00 0.00 0.01 0.01 0.01 0.01 0.01 0.01 0.00 0.01 0.01 0.01 0.02 0.03 0.04 0.03 0.03 0.04 0.04 0.05 0.04 0.04 0.04 0.05 0.05 0.04 0.03 0.03 0.02 0.04 0.05 0.06 0.06 0.06 0.08 0.09 0.11 0.12 0.16 0.21 0.16 0.10 0.10 0.08 0.06 0.06 0.07 0.06 0.06
0.00 0.00 0.00 0.01 0.01 0.01 0.01 0.01 0.00 0.01 0.01 0.01 0.01 0.02 0.02 0.02 0.03 0.03 0.02 0.04 0.05 0.05 0.05 0.04 0.03 0.03 0.03 0.03 0.03 0.05 0.04 0.05 0.05 0.07 0.10 0.10 0.13 0.19 0.26 0.26 0.19 0.16 0.13 0.10 0.07 0.07 0.06 0.05 0.04
0.00 0.00 0.00 0.00 0.00 0.00 0.00 0.00 0.01 0.01 0.01 0.02 0.01 0.02 0.03 0.03 0.04 0.03 0.02 0.02 0.03 0.05 0.04 0.04 0.03 0.02 0.02 0.02 0.02 0.03 0.03 0.04 0.05 0.08 0.11 0.13 0.24 0.32 0.34 0.32 0.23 0.20 0.15 0.11 0.09 0.06 0.04 0.03 0.04
0.00 0.00 0.00 0.00 0.00 0.00 0.00 0.00 0.01 0.02 0.03 0.03 0.02 0.03 0.03 0.03 0.03 0.02 0.01 0.01 0.01 0.01 0.01 0.03 0.03 0.03 0.03 0.02 0.02 0.02 0.03 0.04 0.07 0.09 0.13 0.23 0.36 0.41 0.40 0.33 0.27 0.23 0.15 0.12 0.09 0.05 0.03 0.04 0.03
0.00 0.00 0.00 0.00 0.00 0.00 0.00 0.01 0.02 0.03 0.04 0.03 0.02 0.02 0.02 0.03 0.03 0.02 0.01 0.01 0.01 0.01 0.01 0.02 0.02 0.02 0.02 0.02 0.03 0.04 0.05 0.07 0.11 0.14 0.19 0.28 0.39 0.41 0.37 0.26 0.22 0.18 0.17 0.15 0.10 0.07 0.04 0.04 0.03
0.00 0.00 0.00 0.00 0.00 0.00 0.00 0.01 0.02 0.03 0.02 0.02 0.02 0.02 0.01 0.03 0.03 0.02 0.01 0.01 0.01 0.01 0.01 0.02 0.02 0.03 0.04 0.05 0.06 0.04 0.07 0.11 0.17 0.20 0.22 0.26 0.29 0.28 0.22 0.16 0.16 0.13 0.14 0.15 0.13 0.08 0.05 0.04 0.03
0.00 0.00 0.00 0.00 0.00 0.01 0.00 0.00 0.01 0.02 0.01 0.02 0.01 0.01 0.01 0.01 0.02 0.02 0.01 0.01 0.02 0.02 0.02 0.02 0.02 0.03 0.03 0.05 0.07 0.08 0.10 0.15 0.19 0.21 0.24 0.24 0.19 0.18 0.14 0.12 0.13 0.11 0.10 0.09 0.10 0.09 0.10 0.08 0.06
0.00 0.00 0.00 0.00 0.00 0.00 0.00 0.00 0.01 0.01 0.01 0.01 0.01 0.01 0.01 0.01 0.02 0.02 0.02 0.02 0.02 0.02 0.01 0.01 0.01 0.02 0.03 0.05 0.06 0.06 0.08 0.11 0.16 0.20 0.22 0.19 0.12 0.11 0.11 0.10 0.11 0.11 0.09 0.09 0.09 0.09 0.10 0.07 0.06
0.00 0.00 0.00 0.00 0.00 0.01 0.00 0.00 0.01 0.01 0.01 0.01 0.01 0.01 0.01 0.01 0.02 0.02 0.01 0.02 0.03 0.03 0.02 0.02 0.02 0.02 0.04 0.06 0.07 0.05 0.04 0.06 0.09 0.14 0.16 0.14 0.09 0.08 0.08 0.07 0.08 0.09 0.08 0.09 0.10 0.10 0.09 0.08 0.08
0.00 0.00 0.00 0.00 0.00 0.00 0.00 0.00 0.00 0.00 0.00 0.00 0.00 0.00 0.00 0.00 0.01 0.01 0.01 0.02 0.02 0.03 0.02 0.02 0.03 0.03 0.03 0.03 0.04 0.04 0.04 0.05 0.05 0.08 0.09 0.09 0.07 0.07 0.07 0.07 0.07 0.08 0.09 0.11 0.08 0.07 0.09 0.10 0.09
0.00 0.00 0.00 0.00 0.00 0.00 0.00 0.00 0.00 0.00 0.00 0.01 0.01 0.00 0.00 0.01 0.01 0.01 0.02 0.01 0.02 0.02 0.02 0.03 0.02 0.02 0.03 0.03 0.04 0.04 0.04 0.05 0.05 0.06 0.06 0.05 0.05 0.05 0.07 0.06 0.05 0.06 0.08 0.10 0.09 0.11 0.11 0.11 0.11
0.00 0.00 0.00 0.00 0.00 0.00 0.00 0.00 0.00 0.01 0.01 0.01 0.02 0.01 0.01 0.01 0.01 0.01 0.01 0.01 0.02 0.02 0.02 0.02 0.03 0.03 0.04 0.03 0.04 0.03 0.03 0.04 0.05 0.04 0.03 0.04 0.04 0.04 0.05 0.04 0.05 0.05 0.06 0.08 0.10 0.11 0.11 0.10 0.10
0.00 0.00 0.00 0.00 0.00 0.00 0.00 0.01 0.01 0.01 0.01 0.01 0.01 0.01 0.02 0.01 0.00 0.00 0.01 0.02 0.02 0.02 0.01 0.01 0.02 0.02 0.03 0.03 0.03 0.04 0.03 0.03 0.04 0.04 0.03 0.03 0.03 0.03 0.03 0.05 0.04 0.04 0.05 0.07 0.09 0.10 0.10 0.10 0.10
0.00 0.00 0.00 0.00 0.00 0.00 0.00 0.01 0.01 0.00 0.01 0.00 0.00 0.01 0.01 0.01 0.01 0.00 0.00 0.01 0.02 0.01 0.01 0.02 0.03 0.03 0.02 0.02 0.03 0.04 0.04 0.02 0.02 0.02 0.03 0.02 0.02 0.02 0.03 0.04 0.04 0.04 0.05 0.08 0.10 0.08 0.09 0.09 0.09
0.00 0.00 0.00 0.00 0.00 0.00 0.00 0.00 0.00 0.01 0.00 0.01 0.01 0.01 0.01 0.01 0.01 0.01 0.01 0.01 0.01 0.02 0.02 0.03 0.03 0.03 0.02 0.02 0.02 0.03 0.03 0.02 0.02 0.02 0.03 0.03 0.03 0.02 0.02 0.04 0.05 0.06 0.05 0.07 0.08 0.06 0.07 0.08 0.09
0.00 0.00 0.00 0.00 0.00 0.00 0.00 0.00 0.00 0.00 0.00 0.00 0.01 0.01 0.01 0.01 0.01 0.01 0.01 0.01 0.01 0.02 0.02 0.03 0.02 0.02 0.02 0.02 0.02 0.02 0.02 0.01 0.01 0.02 0.03 0.03 0.03 0.02 0.02 0.05 0.06 0.07 0.06 0.06 0.07 0.08 0.07 0.08 0.09
0.00 0.00 0.00 0.00 0.00 0.00 0.00 0.00 0.00 0.00 0.00 0.00 0.01 0.01 0.01 0.01 0.01 0.02 0.02 0.02 0.02 0.01 0.01 0.01 0.02 0.02 0.02 0.02 0.01 0.01 0.02 0.03 0.02 0.03 0.04 0.04 0.04 0.04 0.04 0.05 0.07 0.07 0.07 0.08 0.09 0.08 0.08 0.08 0.09
0.00 0.00 0.00 0.00 0.00 0.00 0.00 0.00 0.00 0.00 0.00 0.00 0.00 0.00 0.00 0.00 0.01 0.01 0.01 0.01 0.01 0.00 0.01 0.01 0.01 0.02 0.02 0.02 0.01 0.01 0.02 0.04 0.05 0.03 0.04 0.03 0.03 0.05 0.05 0.05 0.06 0.06 0.08 0.08 0.08 0.09 0.10 0.10 0.10
0.00 0.00 0.00 0.00 0.00 0.00 0.00 0.00 0.00 0.00 0.00 0.00 0.00 0.00 0.00 0.01 0.01 0.01 0.00 0.00 0.00 0.00 0.00 0.01 0.01 0.01 0.01 0.01 0.02 0.02 0.02 0.03 0.06 0.05 0.04 0.03 0.03 0.03 0.03 0.04 0.05 0.05 0.06 0.06 0.07 0.07 0.09 0.10 0.10
0.00 0.00 0.00 0.00 0.00 0.00 0.00 0.00 0.00 0.00 0.00 0.00 0.00 0.00 0.00 0.00 0.01 0.01 0.00 0.00 0.00 0.00 0.00 0.00 0.01 0.00 0.01 0.01 0.01 0.01 0.02 0.03 0.04 0.04 0.04 0.03 0.03 0.02 0.03 0.02 0.02 0.03 0.05 0.06 0.08 0.08 0.09 0.08 0.06
0.00 0.00 0.00 0.00 0.00 0.00 0.00 0.00 0.00 0.00 0.00 0.00 0.00 0.00 0.00 0.00 0.00 0.00 0.00 0.00 0.01 0.01 0.01 0.01 0.01 0.01 0.00 0.01 0.01 0.01 0.02 0.04 0.03 0.04 0.03 0.03 0.03 0.03 0.03 0.02 0.02 0.03 0.04 0.06 0.08 0.08 0.08 0.07 0.07
0.00 0.00 0.00 0.00 0.00 0.00 0.00 0.00 0.00 0.00 0.00 0.00 0.00 0.00 0.00 0.00 0.00 0.00 0.00 0.00 0.01 0.01 0.01 0.01 0.01 0.01 0.01 0.01 0.01 0.01 0.01 0.02 0.02 0.02 0.02 0.02 0.02 0.02 0.02 0.02 0.03 0.04 0.04 0.05 0.07 0.08 0.07 0.07 0.08
0.00 0.00 0.00 0.00 0.00 0.00 0.00 0.00 0.00 0.00 0.00 0.00 0.00 0.00 0.00 0.00 0.00 0.01 0.00 0.00 0.00 0.01 0.01 0.01 0.01 0.01 0.01 0.01 0.01 0.01 0.01 0.01 0.01 0.01 0.02 0.01 0.01 0.02 0.02 0.02 0.03 0.03 0.04 0.05 0.05 0.06 0.07 0.09 0.09
MSLP
1001.38 1002.26 1003.66 1005.44 1007.40 1009.32 1011.01 1012.31 1013.17 1013.59 1013.70 1013.62 1013.52 1013.48 1013.56 1013.75 1013.97 1014.15 1014.22 1014.15 1013.93 1013.64 1013.35 1013.15 1013.10 1013.20 1013.44 1013.77 1014.10 1014.40 1014.62 1014.78 1014.90 1015.04 1015.23 1015.50 1015.82 1016.18 1016.50 1016.76 1016.91 1016.96 1016.93 1016.87 1016.81 1016.79 1016.83 1016.91 1017.00
1001.94 1003.16 1004.85 1006.82 1008.86 1010.74 1012.26 1013.30 1013.84 1013.94 1013.77 1013.48 1013.24 1013.14 1013.23 1013.46 1013.77 1014.03 1014.18 1014.17 1014.02 1013.79 1013.57 1013.43 1013.44 1013.61 1013.91 1014.28 1014.64 1014.95 1015.16 1015.30 1015.38 1015.48 1015.61 1015.81 1016.06 1016.34 1016.60 1016.81 1016.92 1016.96 1016.95 1016.92 1016.91 1016.95 1017.03 1017.14 1017.24
1002.67 1004.17 1006.06 1008.15 1010.18 1011.92 1013.22 1013.99 1014.24 1014.08 1013.70 1013.27 1012.96 1012.87 1012.99 1013.29 1013.66 1013.98 1014.18 1014.20 1014.09 1013.89 1013.71 1013.63 1013.71 1013.95 1014.31 1014.73 1015.13 1015.45 1015.67 1015.79 1015.85 1015.89 1015.97 1016.10 1016.27 1016.48 1016.67 1016.81 1016.90 1016.94 1016.95 1016.96 1017.01 1017.11 1017.24 1017.37 1017.47
1003.52 1005.23 1007.24 1009.34 1011.27 1012.84 1013.90 1014.41 1014.42 1014.08 1013.57 1013.10 1012.80 1012.75 1012.94 1013.30 1013.71 1014.05 1014.25 1014.27 1014.16 1013.98 1013.82 1013.79 1013.92 1014.22 1014.63 1015.09 1015.52 1015.86 1016.08 1016.19 1016.22 1016.24 1016.27 1016.35 1016.46 1016.60 1016.74 1016.84 1016.90 1016.94 1016.98 1017.04 1017.14 1017.28 1017.45 1017.59 1017.67
1004.46 1006.28 1008.31 1010.33 1012.11 1013.47 1014.29 1014.59 1014.44 1013.99 1013.46 1013.02 1012.80 1012.83 1013.10 1013.50 1013.93 1014.26 1014.42 1014.40 1014.26 1014.07 1013.93 1013.93 1014.10 1014.43 1014.88 1015.36 1015.80 1016.13 1016.35 1016.45 1016.47 1016.48 1016.49 1016.54 1016.63 1016.74 1016.83 1016.91 1016.96 1017.00 1017.06 1017.15 1017.28 1017.45 1017.63 1017.76 1017.82
1005.42 1007.26 1009.23 1011.09 1012.67 1013.79 1014.42 1014.56 1014.32 1013.88 1013.41 1013.08 1012.98 1013.12 1013.46 1013.90 1014.30 1014.58 1014.68 1014.60 1014.41 1014.20 1014.07 1014.08 1014.27 1014.62 1015.07 1015.54 1015.95 1016.27 1016.46 1016.55 1016.58 1016.58 1016.61 1016.67 1016.76 1016.86 1016.96 1017.02 1017.06 1017.10 1017.16 1017.25 1017.39 1017.56 1017.73 1017.83 1017.85
1006.35 1008.13 1009.94 1011.60 1012.94 1013.85 1014.31 1014.35 1014.12 1013.75 1013.42 1013.25 1013.30 1013.56 1013.97 1014.41 1014.77 1014.98 1014.99 1014.85 1014.62 1014.39 1014.25 1014.27 1014.47 1014.81 1015.23 1015.65 1016.02 1016.28 1016.43 1016.51 1016.54 1016.57 1016.63 1016.73 1016.85 1016.97 1017.07 1017.14 1017.17 1017.19 1017.23 1017.30 1017.42 1017.56 1017.69 1017.76 1017.73
1007.21 1008.86 1010.47 1011.89 1012.99 1013.70 1014.02 1014.04 1013.85 1013.62 1013.46 1013.48 1013.69 1014.07 1014.52 1014.95 1015.26 1015.39 1015.33 1015.13 1014.86 1014.62 1014.49 1014.52 1014.71 1015.03 1015.39 1015.75 1016.03 1016.22 1016.33 1016.37 1016.41 1016.47 1016.57 1016.72 1016.89 1017.04 1017.16 1017.21 1017.22 1017.21 1017.21 1017.24 1017.31 1017.40 1017.48 1017.51 1017.46
1008.00 1009.47 1010.85 1012.01 1012.87 1013.41 1013.65 1013.67 1013.58 1013.50 1013.53 1013.73 1014.09 1014.56 1015.04 1015.44 1015.69 1015.75 1015.63 1015.38 1015.11 1014.89 1014.78 1014.83 1015.02 1015.30 1015.60 1015.87 1016.06 1016.17 1016.21 1016.22 1016.25 1016.34 1016.48 1016.68 1016.89 1017.06 1017.18 1017.22 1017.20 1017.14 1017.08 1017.04 1017.05 1017.09 1017.13 1017.12 1017.05
1008.72 1010.00 1011.13 1012.05 1012.70 1013.10 1013.27 1013.32 1013.33 1013.40 1013.61 1013.96 1014.44 1014.96 1015.45 1015.81 1016.00 1016.00 1015.84 1015.60 1015.34 1015.16 1015.10 1015.17 1015.36 1015.61 1015.85 1016.04 1016.14 1016.16 1016.14 1016.11 1016.14 1016.24 1016.41 1016.64 1016.87 1017.05 1017.16 1017.17 1017.09 1016.97 1016.84 1016.74 1016.68 1016.67 1016.67 1016.66 1016.58
1009.39 1010.48 1011.40 1012.10 1012.58 1012.85 1012.99 1013.06 1013.17 1013.37 1013.70 1014.16 1014.70 1015.24 1015.71 1016.03 1016.17 1016.13 1015.96 1015.74 1015.53 1015.41 1015.41 1015.53 1015.73 1015.96 1016.15 1016.27 1016.29 1016.25 1016.17 1016.11 1016.12 1016.22 1016.41 1016.64 1016.87 1017.04 1017.11 1017.07 1016.94 1016.74 1016.54 1016.38 1016.27 1016.23 1016.22 1016.21 1016.16
1010.03 1010.96 1011.70 1012.24 1012.58 1012.77 1012.87 1012.97 1013.14 1013.42 1013.82 1014.33 1014.88 1015.40 1015.83 1016.10 1016.20 1016.14 1015.99 1015.80 1015.66 1015.61 1015.68 1015.85 1016.08 1016.30 1016.47 1016.54 1016.52 1016.43 1016.32 1016.24 1016.24 1016.33 1016.50 1016.72 1016.92 1017.05 1017.07 1016.98 1016.78 1016.53 1016.27 1016.06 1015.92 1015.86 1015.86 1015.88 1015.89
1010.65 1011.47 1012.09 1012.51 1012.76 1012.89 1012.97 1013.08 1013.27 1013.57 1013.99 1014.49 1015.01 1015.48 1015.85 1016.07 1016.14 1016.08 1015.95 1015.82 1015.74 1015.77 1015.90 1016.11 1016.37 1016.61 1016.77 1016.83 1016.80 1016.70 1016.58 1016.50 1016.49 1016.57 1016.71 1016.89 1017.04 1017.12 1017.09 1016.94 1016.69 1016.39 1016.10 1015.87 1015.72 1015.67 1015.69 1015.76 1015.83
1011.25 1012.01 1012.56 1012.91 1013.11 1013.22 1013.29 1013.39 1013.56 1013.84 1014.22 1014.66 1015.11 1015.52 1015.83 1016.01 1016.06 1016.01 1015.91 1015.83 1015.81 1015.89 1016.07 1016.32 1016.59 1016.85 1017.02 1017.11 1017.10 1017.02 1016.93 1016.86 1016.85 1016.91 1017.03 1017.15 1017.25 1017.27 1017.19 1016.99 1016.71 1016.40 1016.10 1015.86 1015.72 1015.70 1015.76 1015.89 1016.03
1011.80 1012.54 1013.06 1013.41 1013.60 1013.70 1013.76 1013.84 1013.98 1014.20 1014.51 1014.86 1015.23 1015.56 1015.82 1015.97 1016.02 1015.99 1015.93 1015.89 1015.91 1016.02 1016.21 1016.47 1016.76 1017.02 1017.22 1017.35 1017.39 1017.37 1017.32 1017.28 1017.28 1017.33 1017.41 1017.48 1017.52 1017.49 1017.36 1017.14 1016.86 1016.55 1016.26 1016.04 1015.93 1015.93 1016.04 1016.22 1016.43
1012.27 1013.01 1013.55 1013.91 1014.13 1014.24 1014.30 1014.35 1014.44 1014.59 1014.81 1015.08 1015.37 1015.64 1015.86 1016.01 1016.08 1016.08 1016.06 1016.05 1016.09 1016.19 1016.37 1016.61 1016.88 1017.15 1017.38 1017.55 1017.66 1017.70 1017.72 1017.73 1017.74 1017.77 1017.81 1017.84 1017.83 1017.76 1017.61 1017.39 1017.12 1016.83 1016.57 1016.38 1016.30 1016.32 1016.46 1016.68 1016.95
1012.62 1013.37 1013.94 1014.35 1014.61 1014.75 1014.82 1014.85 1014.88 1014.96 1015.09 1015.28 1015.51 1015.75 1015.97 1016.14 1016.26 1016.32 1016.34 1016.35 1016.38 1016.46 1016.59 1016.78 1017.02 1017.28 1017.52 1017.74 1017.91 1018.03 1018.11 1018.16 1018.19 1018.21 1018.22 1018.20 1018.15 1018.05 1017.90 1017.69 1017.45 1017.20 1016.98 1016.82 1016.76 1016.79 1016.94 1017.18 1017.48
1012.82 1013.58 1014.19 1014.66 1014.97 1015.15 1015.22 1015.23 1015.22 1015.23 1015.29 1015.42 1015.62 1015.86 1016.12 1016.35 1016.55 1016.68 1016.75 1016.78 1016.80 1016.83 1016.90 1017.02 1017.21 1017.43 1017.68 1017.93 1018.16 1018.34 1018.48 1018.57 1018.61 1018.61 1018.59 1018.54 1018.46 1018.34 1018.20 1018.02 1017.82 1017.62 1017.44 1017.30 1017.23 1017.26 1017.39 1017.62 1017.94
1012.89 1013.65 1014.30 1014.81 1015.17 1015.38 1015.47 1015.45 1015.40 1015.35 1015.36 1015.46 1015.66 1015.94 1016.27 1016.60 1016.90 1017.12 1017.26 1017.32 1017.33 1017.31 1017.31 1017.36 1017.47 1017.66 1017.90 1018.16 1018.43 1018.66 1018.84 1018.95 1019.00 1018.99 1018.93 1018.85 1018.74 1018.63 1018.50 1018.36 1018.21 1018.05 1017.90 1017.77 1017.68 1017.67 1017.76 1017.96 1018.27
1012.84 1013.60 1014.28 1014.83 1015.23 1015.46 1015.55 1015.51 1015.41 1015.32 1015.29 1015.38 1015.60 1015.94 1016.36 1016.82 1017.24 1017.58 1017.81 1017.91 1017.92 1017.86 1017.80 1017.77 1017.82 1017.96 1018.18 1018.45 1018.74 1019.00 1019.20 1019.32 1019.36 1019.33 1019.25 1019.14 1019.02 1018.91 1018.80 1018.70 1018.59 1018.47 1018.34 1018.20 1018.08 1018.01 1018.03 1018.18 1018.46
1012.75 1013.50 1014.19 1014.77 1015.19 1015.43 1015.50 1015.42 1015.27 1015.13 1015.08 1015.16 1015.41 1015.83 1016.37 1016.96 1017.52 1017.99 1018.31 1018.48 1018.50 1018.43 1018.33 1018.24 1018.24 1018.33 1018.53 1018.79 1019.08 1019.36 1019.57 1019.69 1019.72 1019.67 1019.56 1019.43 1019.30 1019.19 1019.12 1019.05 1018.98 1018.89 1018.76 1018.60 1018.43 1018.30 1018.25 1018.32 1018.54
1012.67 1013.42 1014.11 1014.70 1015.12 1015.34 1015.37 1015.25 1015.04 1014.85 1014.75 1014.83 1015.12 1015.61 1016.25 1016.97 1017.67 1018.27 1018.70 1018.95 1019.02 1018.95 1018.83 1018.72 1018.68 1018.74 1018.91 1019.16 1019.46 1019.73 1019.95 1020.06 1020.08 1020.00 1019.88 1019.73 1019.60 1019.51 1019.45 1019.42 1019.38 1019.30 1019.18 1018.99 1018.78 1018.58 1018.44 1018.43 1018.59
1012.67 1013.40 1014.10 1014.68 1015.08 1015.26 1015.24 1015.05 1014.77 1014.51 1014.38 1014.44 1014.75 1015.30 1016.02 1016.85 1017.68 1018.40 1018.94 1019.27 1019.40 1019.37 1019.26 1019.14 1019.09 1019.14 1019.30 1019.55 1019.83 1020.11 1020.32 1020.43 1020.43 1020.35 1020.21 1020.06 1019.93 1019.85 1019.82 1019.81 1019.79 1019.73 1019.61 1019.40 1019.15 1018.89 1018.67 1018.58 1018.67
1012.74 1013.48 1014.17 1014.72 1015.09 1015.22 1015.12 1014.86 1014.50 1014.18 1013.99 1014.04 1014.35 1014.93 1015.72 1016.63 1017.55 1018.37 1019.01 1019.42 1019.62 1019.65 1019.58 1019.48 1019.44 1019.50 1019.66 1019.90 1020.19 1020.46 1020.67 1020.78 1020.78 1020.69 1020.55 1020.41 1020.29 1020.22 1020.21 1020.22 1020.22 1020.18 1020.05 1019.84 1019.55 1019.25 1018.98 1018.82 1018.83
1012.88 1013.62 1014.29 1014.81 1015.12 1015.19 1015.02 1014.68 1014.26 1013.87 1013.64 1013.66 1013.96 1014.55 1015.38 1016.34 1017.32 1018.21 1018.92 1019.42 1019.69 1019.78 1019.76 1019.72 1019.71 1019.79 1019.96 1020.22 1020.51 1020.79 1021.00 1021.11 1021.11 1021.03 1020.90 1020.77 1020.66 1020.61 1020.61 1020.63 1020.65 1020.62 1020.50 1020.28 1019.99 1019.67 1019.37 1019.16 1019.10
1013.01 1013.75 1014.39 1014.87 1015.12 1015.12 1014.89 1014.49 1014.01 1013.59 1013.33 1013.33 1013.62 1014.22 1015.05 1016.02 1017.03 1017.97 1018.73 1019.28 1019.62 1019.78 1019.83 1019.84 1019.89 1020.00 1020.21 1020.48 1020.79 1021.07 1021.29 1021.41 1021.42 1021.36 1021.25 1021.13 1021.04 1021.00 1021.01 1021.04 1021.07 1021.04 1020.94 1020.74 1020.46 1020.13 1019.82 1019.59 1019.50
1013.05 1013.77 1014.38 1014.80 1015.00 1014.94 1014.67 1014.23 1013.74 1013.31 1013.06 1013.05 1013.35 1013.94 1014.76 1015.73 1016.74 1017.68 1018.47 1019.06 1019.46 1019.69 1019.80 1019.89 1019.99 1020.16 1020.40 1020.70 1021.02 1021.31 1021.54 1021.68 1021.72 1021.67 1021.58 1021.48 1021.41 1021.38 1021.39 1021.43 1021.46 1021.45 1021.35 1021.18 1020.93 1020.63 1020.34 1020.11 1019.99
1012.92 1013.61 1014.17 1014.54 1014.67 1014.58 1014.29 1013.86 1013.40 1013.01 1012.79 1012.82 1013.13 1013.72 1014.53 1015.48 1016.47 1017.40 1018.19 1018.80 1019.24 1019.53 1019.72 1019.87 1020.04 1020.26 1020.55 1020.88 1021.22 1021.54 1021.78 1021.94 1022.00 1021.98 1021.92 1021.84 1021.78 1021.76 1021.77 1021.81 1021.84 1021.83 1021.76 1021.61 1021.40 1021.15 1020.90 1020.69 1020.57
1012.59 1013.22 1013.71 1014.01 1014.11 1014.00 1013.72 1013.34 1012.94 1012.63 1012.49 1012.59 1012.95 1013.55 1014.36 1015.28 1016.23 1017.13 1017.90 1018.53 1019.00 1019.34 1019.59 1019.82 1020.06 1020.34 1020.68 1021.05 1021.41 1021.75 1022.01 1022.19 1022.28 1022.29 1022.25 1022.20 1022.16 1022.14 1022.16 1022.19 1022.22 1022.21 1022.15 1022.04 1021.88 1021.68 1021.48 1021.32 1021.22
1012.06 1012.61 1013.02 1013.26 1013.31 1013.20 1012.95 1012.65 1012.36 1012.17 1012.14 1012.34 1012.76 1013.39 1014.19 1015.09 1016.01 1016.87 1017.62 1018.25 1018.74 1019.13 1019.46 1019.76 1020.07 1020.42 1020.80 1021.21 1021.60 1021.96 1022.25 1022.45 1022.57 1022.61 1022.60 1022.58 1022.55 1022.55 1022.57 1022.59 1022.62 1022.62 1022.58 1022.50 1022.38 1022.24 1022.10 1021.98 1021.92
Thickness
5848 5852 5852 5846 5831 5811 5793 5796 5803 5799 5796 5802 5803 5800 5792 5785 5779 5767 5784 5792 5791 5789 5786 5781 5778 5777 5776 5776 5775 5774 5774 5773 5772 5771 5770 5769 5768 5767 5766 5765 5764 5762 5761 5760 5759 5758 5757 5756 5755
5857 5856 5850 5844 5820 5794 5785 5798 5798 5798 5801 5806 5804 5801 5793 5785 5788 5785 5788 5790 5791 5789 5787 5783 5777 5776 5775 5775 5774 5773 5772 5772 5771 5769 5769 5768 5766 5765 5764 5763 5762 5761 5759 5758 5757 5756 5755 5754 5753
5860 5858 5848 5835 5810 5794 5786 5798 5799 5803 5807 5805 5799 5799 5791 5783 5787 5788 5791 5792 5791 5790 5787 5780 5777 5775 5774 5773 5772 5772 5771 5770 5769 5768 5767 5766 5765 5764 5762 5761 5760 5759 5758 5756 5756 5755 5754 5753 5751
5860 5854 5847 5825 5801 5801 5801 5802 5805 5802 5803 5805 5800 5790 5789 5790 5792 5792 5793 5794 5792 5790 5787 5780 5776 5774 5773 5772 5771 5771 5770 5769 5768 5767 5766 5764 5763 5762 5761 5760 5758 5757 5756 5755 5754 5753 5752 5751 5750
5863 5850 5829 5809 5801 5804 5810 5811 5811 5804 5799 5801 5799 5786 5781 5790 5795 5794 5794 5794 5792 5790 5787 5782 5775 5773 5772 5771 5770 5770 5769 5768 5767 5766 5764 5763 5762 5761 5760 5759 5757 5756 5755 5754 5753 5752 5751 5750 5749
5854 5847 5820 5801 5798 5805 5811 5815 5811 5804 5800 5800 5796 5786 5779 5790 5791 5792 5793 5792 5792 5789 5786 5780 5775 5773 5771 5770 5769 5768 5768 5767 5766 5765 5764 5763 5762 5760 5759 5758 5756 5755 5754 5753 5752 5751 5750 5749 5749
5848 5838 5817 5809 5801 5801 5807 5816 5810 5803 5798 5798 5801 5786 5781 5786 5790 5792 5790 5790 5791 5789 5787 5783 5779 5774 5771 5769 5768 5767 5767 5766 5765 5764 5763 5762 5761 5760 5758 5757 5756 5755 5754 5753 5752 5751 5750 5749 5748
5857 5842 5820 5813 5804 5801 5812 5815 5813 5807 5799 5806 5804 5787 5779 5786 5791 5791 5789 5788 5787 5786 5785 5783 5781 5778 5776 5772 5768 5767 5766 5765 5765 5764 5763 5762 5761 5760 5758 5757 5756 5754 5753 5752 5751 5750 5749 5749 5748
5859 5835 5816 5814 5809 5806 5815 5811 5810 5815 5805 5801 5802 5799 5794 5793 5792 5788 5785 5784 5782 5782 5782 5782 5781 5779 5778 5775 5770 5768 5766 5766 5765 5764 5763 5763 5764 5763 5760 5758 5756 5754 5753 5752 5751 5750 5749 5749 5748
5851 5826 5818 5825 5824 5817 5815 5812 5810 5806 5798 5793 5793 5794 5795 5792 5789 5785 5783 5782 5781 5780 5781 5780 5780 5778 5777 5775 5772 5771 5770 5768 5767 5766 5765 5765 5763 5762 5761 5757 5755 5754 5753 5752 5751 5750 5750 5750 5751
5844 5827 5826 5828 5830 5825 5816 5814 5816 5806 5794 5794 5790 5789 5790 5788 5787 5786 5785 5785 5783 5782 5780 5780 5778 5776 5776 5774 5773 5771 5770 5768 5768 5765 5764 5764 5764 5763 5762 5760 5757 5755 5754 5754 5752 5753 5754 5754 5753
5837 5833 5832 5830 5831 5825 5818 5815 5811 5807 5802 5806 5802 5796 5792 5788 5786 5786 5784 5784 5784 5782 5781 5780 5777 5774 5773 5772 5772 5770 5770 5769 5768 5765 5764 5764 5763 5762 5761 5759 5758 5757 5755 5754 5754 5753 5754 5753 5752
5832 5828 5832 5833 5830 5827 5821 5814 5809 5804 5808 5808 5802 5796 5792 5789 5788 5788 5787 5785 5784 5781 5781 5780 5777 5774 5771 5769 5769 5770 5768 5768 5766 5764 5763 5762 5763 5761 5761 5758 5757 5757 5755 5754 5753 5753 5753 5752 5751
5834 5831 5829 5830 5827 5824 5816 5812 5808 5802 5808 5803 5798 5793 5793 5790 5789 5788 5785 5784 5783 5782 5781 5781 5777 5774 5771 5769 5767 5767 5767 5765 5765 5764 5762 5761 5761 5759 5758 5757 5756 5756 5755 5754 5753 5753 5752 5752 5752
5839 5827 5823 5824 5824 5822 5819 5802 5803 5807 5807 5800 5797 5794 5792 5791 5790 5788 5787 5785 5785 5784 5783 5781 5778 5775 5772 5770 5769 5768 5767 5766 5764 5762 5760 5759 5759 5757 5757 5756 5756 5755 5755 5753 5753 5752 5752 5751 5751
5833 5823 5811 5817 5823 5822 5815 5793 5803 5811 5806 5798 5796 5795 5792 5791 5792 5791 5791 5789 5788 5786 5783 5781 5781 5777 5773 5770 5768 5769 5768 5767 5764 5762 5760 5758 5757 5756 5756 5756 5756 5754 5755 5754 5753 5752 5751 5750 5750
5822 5814 5811 5812 5823 5821 5815 5801 5806 5813 5807 5800 5798 5797 5794 5793 5793 5793 5793 5792 5789 5787 5784 5781 5779 5777 5775 5772 5770 5769 5767 5766 5765 5763 5761 5758 5757 5757 5757 5757 5756 5755 5755 5754 5754 5753 5751 5749 5748
5814 5817 5813 5811 5819 5819 5812 5808 5810 5812 5809 5804 5802 5800 5797 5795 5794 5796 5795 5794 5792 5789 5785 5782 5779 5777 5775 5774 5771 5769 5767 5767 5765 5763 5760 5759 5758 5757 5757 5757 5756 5756 5755 5753 5752 5750 5749 5748 5747
5829 5820 5814 5815 5823 5816 5812 5810 5811 5812 5810 5806 5804 5802 5799 5798 5801 5801 5798 5796 5793 5789 5786 5783 5780 5777 5775 5774 5772 5769 5767 5766 5766 5764 5761 5760 5759 5758 5757 5758 5756 5755 5754 5752 5752 5751 5748 5747 5747
5824 5815 5813 5814 5820 5816 5811 5810 5817 5815 5812 5812 5808 5805 5804 5801 5801 5800 5799 5797 5795 5791 5787 5784 5781 5779 5777 5775 5773 5771 5769 5768 5767 5765 5762 5760 5759 5758 5758 5756 5756 5755 5753 5751 5750 5748 5748 5748 5748
5817 5816 5814 5810 5813 5817 5810 5804 5809 5815 5816 5816 5814 5813 5811 5806 5803 5801 5800 5798 5797 5793 5790 5788 5784 5781 5779 5777 5775 5772 5769 5769 5768 5765 5763 5761 5759 5758 5757 5756 5755 5754 5754 5751 5750 5748 5747 5746 5747
5810 5824 5821 5813 5805 5804 5807 5795 5807 5813 5811 5812 5813 5814 5813 5812 5809 5806 5804 5801 5799 5797 5795 5790 5786 5783 5781 5778 5776 5772 5769 5767 5766 5765 5764 5762 5760 5758 5757 5756 5754 5753 5753 5751 5750 5750 5748 5746 5745
5819 5825 5820 5814 5808 5805 5807 5799 5809 5816 5808 5814 5818 5819 5819 5818 5815 5811 5809 5806 5803 5801 5798 5793 5789 5785 5782 5780 5776 5773 5771 5770 5769 5767 5763 5761 5761 5758 5757 5755 5753 5752 5752 5750 5749 5748 5747 5747 5746
5819 5815 5810 5811 5810 5789 5800 5797 5800 5818 5816 5820 5824 5824 5823 5822 5820 5816 5814 5810 5806 5804 5800 5796 5790 5786 5783 5780 5778 5774 5771 5769 5767 5764 5762 5762 5761 5759 5757 5755 5753 5751 5751 5749 5748 5747 5746 5746 5744
5811 5800 5784 5780 5782 5787 5804 5797 5805 5823 5827 5826 5825 5826 5826 5825 5822 5818 5815 5810 5807 5804 5801 5797 5792 5787 5785 5781 5779 5776 5773 5770 5766 5764 5763 5762 5761 5759 5756 5755 5751 5750 5749 5748 5747 5745 5745 5744 5742
5806 5806 5786 5773 5779 5792 5793 5792 5813 5827 5829 5830 5830 5829 5827 5825 5824 5821 5818 5814 5810 5806 5802 5799 5794 5789 5786 5783 5780 5778 5775 5773 5771 5767 5765 5763 5762 5760 5757 5754 5751 5749 5748 5748 5746 5745 5744 5742 5740
5800 5804 5817 5800 5794 5786 5794 5801 5813 5823 5822 5824 5825 5825 5824 5824 5824 5822 5820 5817 5812 5808 5804 5801 5796 5791 5787 5785 5782 5779 5776 5773 5771 5768 5766 5764 5761 5760 5756 5753 5751 5748 5746 5745 5744 5742 5741 5740 5739
5813 5810 5800 5790 5771 5771 5785 5791 5801 5808 5813 5817 5819 5819 5821 5823 5823 5821 5819 5816 5814 5810 5806 5802 5797 5792 5789 5786 5783 5781 5777 5774 5771 5768 5765 5763 5760 5758 5755 5752 5749 5746 5744 5743 5741 5740 5739 5737 5736
5794 5796 5798 5797 5793 5778 5774 5791 5820 5816 5817 5816 5818 5820 5821 5822 5821 5818 5818 5816 5814 5811 5806 5800 5796 5792 5788 5786 5783 5780 5777 5774 5771 5768 5765 5762 5759 5756 5753 5750 5747 5744 5742 5740 5738 5738 5736 5735 5733
5803 5800 5796 5782 5777 5785 5786 5795 5819 5820 5820 5819 5817 5818 5819 5820 5820 5818 5816 5814 5811 5808 5804 5799 5795 5791 5788 5785 5782 5778 5775 5772 5769 5767 5764 5761 5757 5755 5751 5748 5745 5743 5740 5738 5736 5734 5733 5731 5730